Theta_e
310 310 311 310 310 310 310 311 310 310 310 311 311 312 312 312 312 313 313 312 313 313 313 313 313 313 310 301 303 315 329 326 316 313 310 308 305 306 305 311 313 310 311 314 317 318 318
312 311 311 310 310 310 310 311 311 311 311 311 311 312 312 312 312 313 313 313 313 313 312 312 313 312 306 294 310 313 314 314 313 313 313 315 310 310 308 308 309 313 313 313 315 315 316
311 311 310 311 311 311 311 311 311 311 312 312 313 313 312 312 312 313 313 313 313 313 313 313 313 311 303 300 310 312 311 310 313 312 311 315 318 313 311 307 312 311 309 312 313 314 314
310 311 311 311 311 310 311 311 311 311 312 312 312 312 311 311 312 313 313 313 313 313 313 314 314 310 299 308 311 309 309 308 309 311 310 312 314 310 310 312 310 307 307 303 311 313 314
310 311 311 311 310 310 310 310 311 311 311 312 312 312 311 311 311 312 312 312 313 313 314 315 310 306 298 313 306 310 309 304 306 307 309 311 309 306 307 304 302 305 300 302 306 312 312
310 310 310 310 310 310 310 310 310 311 311 311 312 311 311 311 311 312 311 311 313 312 312 313 311 302 306 303 307 307 311 309 304 304 304 305 304 300 301 299 295 298 299 302 303 309 311
310 309 309 310 310 310 310 310 310 310 311 311 311 311 311 312 312 311 309 309 303 302 307 303 303 303 304 307 307 304 306 305 305 304 296 301 297 294 297 300 301 302 302 301 306 310 308
309 310 310 310 310 310 310 311 310 310 310 310 311 311 311 311 311 311 309 304 303 304 295 302 301 301 303 303 297 301 306 298 298 295 300 296 294 300 301 301 300 299 299 300 306 309 308
310 310 309 309 309 310 309 310 310 311 311 311 311 311 311 310 310 309 307 305 309 307 296 297 300 299 300 302 297 298 302 298 295 293 296 293 297 301 300 299 298 299 298 300 300 305 307
309 309 309 309 309 310 309 310 310 310 310 310 310 310 310 309 306 307 305 308 309 308 289 292 295 299 301 301 296 304 304 299 295 291 294 295 300 298 298 298 300 296 301 301 301 299 296
309 308 309 309 309 309 309 309 308 309 310 310 310 310 310 308 307 304 306 310 310 304 278 295 298 307 303 299 301 301 307 300 293 293 293 291 294 296 295 298 301 298 302 301 301 299 300
309 308 309 309 309 308 308 308 308 309 309 309 310 310 309 310 309 310 310 310 305 287 278 289 296 293 294 297 298 301 301 305 301 295 295 293 298 297 298 300 301 304 300 300 301 300 293
308 308 308 309 308 308 308 308 308 308 308 309 309 309 307 310 304 310 310 303 287 280 292 286 289 292 292 291 293 296 295 294 292 288 289 293 293 296 299 296 301 300 299 291 290 291 290
307 307 308 308 308 308 307 307 307 307 307 308 307 306 310 311 311 311 306 294 280 286 287 293 291 291 289 292 291 292 292 290 295 293 290 287 287 293 297 296 296 298 298 292 285 288 291
307 307 307 307 308 308 307 306 306 306 307 306 305 312 310 310 312 310 300 286 282 287 290 289 290 288 287 291 291 291 290 289 292 294 288 288 289 299 298 298 299 297 294 301 296 297 293
306 307 307 307 308 308 307 307 307 307 307 306 305 308 307 313 312 305 295 287 289 293 292 291 285 288 285 288 287 289 289 293 293 295 297 291 285 294 299 299 299 299 302 294 297 288 288
307 306 307 307 307 307 307 307 307 307 306 305 306 302 310 311 310 300 289 290 292 295 294 290 288 287 288 288 289 287 288 291 296 295 296 294 290 289 296 295 292 296 295 298 300 296 291
306 306 307 307 307 307 307 307 307 307 305 305 306 297 309 312 298 298 292 293 295 294 295 292 293 291 289 290 288 289 289 292 297 297 291 294 291 287 290 299 300 299 297 298 294 293 297
306 305 306 307 307 307 307 307 307 307 306 303 302 301 310 307 292 292 294 293 295 293 293 293 291 293 294 290 286 288 290 296 296 294 293 295 291 285 287 293 299 296 299 301 302 303 297
306 306 306 306 307 307 307 307 307 306 306 305 303 296 300 301 300 292 291 291 290 297 295 295 293 294 291 289 292 289 288 294 297 296 298 296 290 288 284 289 293 293 298 299 300 296 297
305 305 306 306 306 306 307 307 307 306 306 305 302 298 299 292 294 294 293 291 290 289 294 295 292 292 291 287 288 289 292 293 296 296 296 293 285 289 291 291 292 293 296 298 298 301 297
305 305 305 306 306 306 306 307 307 306 306 304 299 295 298 294 296 294 293 291 290 292 292 290 291 293 293 289 290 288 291 292 291 295 291 294 287 290 289 292 291 289 294 298 300 301 302
305 305 305 306 306 306 306 307 307 307 306 302 303 303 297 294 295 293 292 291 292 293 295 294 294 293 292 293 296 297 297 297 295 293 292 292 290 288 285 291 290 287 295 298 301 304 304
306 305 305 305 305 306 306 307 307 307 307 303 302 302 295 290 293 293 294 293 292 293 291 296 297 294 297 302 301 300 299 297 295 296 297 292 290 290 287 289 279 294 305 304 302 305 307
306 306 306 305 305 305 306 306 307 307 307 305 304 302 297 290 293 293 294 293 295 296 294 295 297 300 302 298 292 291 292 292 294 296 296 297 292 289 287 286 289 296 302 301 301 302 308
307 307 306 306 306 304 305 306 306 307 307 306 305 306 301 292 294 296 294 295 291 291 293 295 300 303 302 295 291 285 283 287 288 292 298 297 296 291 288 285 282 294 302 307 308 297 309
306 306 306 306 306 306 306 305 305 306 307 305 305 311 302 293 298 298 295 293 296 293 291 294 295 296 301 292 287 286 286 292 286 287 290 291 290 288 288 286 287 298 303 308 295 297 310
307 306 306 306 306 306 307 306 305 306 306 305 304 310 303 297 299 301 302 298 298 296 289 293 291 295 295 290 289 287 287 289 289 290 289 290 288 289 291 287 283 298 301 296 301 307 308
306 306 306 306 305 306 306 307 306 306 306 306 300 309 312 300 299 305 305 307 305 303 296 294 291 292 294 290 292 291 288 289 289 285 295 288 290 287 291 289 296 300 300 303 305 306 308
Wind_Speed
15 16 16 17 18 17 17 17 17 17 18 18 19 20 20 21 21 20 19 19 18 18 18 17 17 16 13 11 15 12 8 9 9 14 18 22 24 22 29 26 25 31 28 28 29 26 27
16 17 17 16 16 17 17 17 17 17 16 16 17 18 19 20 21 21 21 21 20 19 17 16 15 13 13 23 14 17 13 14 12 15 22 22 23 24 26 29 31 28 29 31 29 29 29
17 17 17 17 17 18 18 18 19 18 17 16 16 17 19 20 20 20 20 21 22 22 23 20 15 12 18 23 19 20 21 16 17 19 19 18 19 25 26 31 28 30 34 31 32 29 31
16 16 16 17 17 18 19 19 19 19 18 18 18 17 20 22 22 23 24 25 24 23 24 21 14 13 15 15 17 21 21 22 22 21 21 20 19 22 23 27 32 32 32 31 27 29 32
17 17 18 18 19 19 19 19 19 19 19 19 17 17 18 20 21 23 23 27 30 30 21 14 9 12 16 14 13 18 19 21 20 20 21 17 20 20 18 22 22 29 23 34 33 29 30
18 19 19 19 19 18 18 19 19 19 19 20 19 18 19 21 23 24 25 31 28 16 12 12 13 12 19 12 14 6 9 8 13 17 18 22 15 19 19 20 25 22 30 35 29 25 27
16 16 17 18 19 19 19 19 19 20 20 21 21 20 20 21 22 23 20 14 12 6 11 18 14 14 22 15 5 10 7 11 9 13 20 21 18 26 42 31 30 26 33 33 28 25 27
15 16 17 18 19 19 18 18 20 21 21 22 23 23 22 23 24 25 15 11 15 10 19 19 27 31 28 26 28 24 18 17 15 18 19 20 29 37 22 29 30 33 33 31 28 25 23
16 17 17 18 19 18 20 19 20 20 20 21 21 23 23 23 22 16 9 11 12 15 17 30 35 30 26 25 26 23 21 22 22 22 20 23 35 25 29 28 31 32 33 25 31 23 28
16 17 18 18 18 19 22 22 23 23 23 23 24 25 24 22 11 13 10 15 13 14 11 13 10 6 15 11 19 17 21 23 25 26 23 24 25 31 30 33 31 29 27 28 28 23 21
17 18 18 18 18 20 21 23 23 23 23 24 25 26 25 11 10 7 12 14 12 4 8 13 17 10 17 10 7 8 8 15 24 22 21 31 24 26 31 36 29 34 22 27 27 26 21
19 20 19 18 18 19 19 20 21 22 22 24 25 25 23 3 10 13 14 11 8 5 6 11 6 7 12 14 18 15 9 11 12 21 20 29 26 28 27 28 32 26 29 27 25 19 19
19 19 19 18 17 18 18 19 20 22 23 24 25 25 17 11 9 12 12 5 5 5 18 7 19 18 17 14 15 15 15 9 7 9 18 24 26 29 30 30 28 32 22 17 19 18 23
19 19 18 18 18 18 19 20 20 22 23 23 27 25 13 12 9 8 7 4 5 9 17 21 19 21 20 20 17 20 8 10 19 16 14 16 19 27 26 31 27 29 26 15 26 17 18
19 19 19 20 18 18 18 19 20 22 22 24 28 9 10 6 7 5 7 2 4 12 17 19 20 18 16 17 16 21 13 17 12 12 7 9 12 20 23 29 29 27 31 28 23 21 17
20 20 20 20 19 19 19 21 22 23 23 25 9 10 5 6 5 4 5 9 9 14 13 17 17 14 21 24 5 13 11 6 12 5 1 7 17 20 30 27 32 31 19 27 19 25 22
19 20 20 19 19 20 19 21 23 25 25 30 6 6 7 4 4 3 5 10 20 18 13 15 16 15 18 20 18 13 8 15 8 8 5 11 12 23 24 21 27 24 25 22 20 17 16
18 19 20 21 20 20 20 22 23 24 25 14 6 6 7 1 4 4 6 21 22 21 15 14 11 13 9 19 21 21 18 8 0 7 13 14 7 18 25 26 15 30 25 24 16 24 16
18 19 19 19 20 20 20 21 22 22 18 9 7 9 6 4 4 9 15 17 19 17 16 20 14 16 11 13 8 7 5 13 6 5 3 8 7 12 18 20 22 20 27 25 19 12 19
18 18 18 19 19 19 20 21 21 22 18 9 6 4 5 8 6 10 16 16 17 18 14 19 20 18 5 12 19 4 5 11 7 8 10 3 7 16 12 13 13 10 21 31 25 18 16
19 19 19 19 19 19 19 20 21 22 20 8 4 4 8 7 10 13 14 16 18 17 17 19 12 17 22 22 19 14 13 10 6 5 5 3 6 15 19 19 15 20 30 27 31 23 22
19 20 19 19 19 20 19 19 19 21 24 5 5 7 8 14 13 14 13 13 20 21 19 16 16 20 20 19 19 21 18 16 9 4 1 4 5 15 20 16 8 22 33 26 29 27 27
18 19 19 19 19 19 18 17 18 17 14 5 4 8 3 9 12 11 8 13 18 20 12 19 19 19 18 16 18 22 20 21 21 19 14 8 4 7 7 10 3 17 23 23 22 24 27
18 18 19 19 19 18 18 17 16 15 12 6 8 7 4 10 12 14 16 11 18 21 22 22 20 13 14 19 22 20 21 21 20 21 17 16 12 6 4 9 2 14 13 17 18 17 22
20 19 20 20 20 19 18 17 17 15 12 8 8 4 2 8 15 14 19 18 17 18 19 14 13 13 17 15 12 12 8 14 22 23 21 15 9 4 4 8 10 17 10 20 18 5 19
20 21 20 19 20 20 19 18 17 16 14 8 8 5 3 5 5 21 16 15 11 13 13 18 19 16 15 8 9 10 4 6 5 6 11 10 8 4 5 2 6 5 24 30 17 13 20
20 21 21 21 20 20 20 20 18 16 15 9 8 8 4 4 14 14 15 11 8 7 8 17 17 12 6 7 6 6 8 14 7 8 10 2 3 7 7 3 3 14 27 16 4 4 10
18 21 22 21 21 20 20 20 19 17 15 9 9 10 5 4 16 19 14 16 15 4 4 6 9 5 5 7 4 4 4 7 7 6 7 6 8 4 4 3 2 21 15 12 4 8 13
19 18 21 20 20 19 20 19 19 17 15 11 7 5 2 3 15 23 23 21 16 6 1 1 4 7 4 3 4 4 3 4 8 4 8 3 4 4 6 4 5 11 12 10 9 10 14
Wind_Direction
23 20 16 13 11 7 2 1 357 353 350 349 346 344 341 338 336 332 326 322 317 312 310 309 310 318 312 244 246 257 164 158 181 201 229 233 233 235 238 234 240 242 241 248 252 251 258
17 21 16 10 9 5 1 356 353 350 345 341 338 337 335 332 328 324 320 315 311 306 301 298 298 303 274 266 271 267 243 246 240 244 225 222 235 235 250 240 240 244 246 250 251 257 260
16 13 11 7 6 2 357 354 354 350 345 342 340 337 334 329 324 318 311 305 301 299 302 298 284 270 266 256 289 296 303 291 258 250 254 258 243 234 243 249 251 254 257 259 256 260 264
14 11 4 7 8 3 357 353 351 346 344 344 341 338 336 330 325 321 315 308 299 295 296 293 276 258 261 262 260 263 256 247 251 265 264 269 276 287 257 257 259 249 255 259 253 255 258
10 9 7 7 5 1 354 352 350 345 344 341 338 333 328 323 318 313 307 298 293 291 285 267 250 218 274 267 228 236 245 256 255 242 238 241 254 259 269 249 246 244 247 249 249 247 262
10 8 6 4 1 358 352 351 347 343 342 340 337 332 327 322 319 313 311 297 275 270 240 235 235 251 236 275 275 191 281 219 231 248 250 227 229 239 240 235 225 220 235 241 255 249 250
7 6 4 360 359 356 350 347 343 341 341 340 337 332 327 320 316 311 321 309 349 217 228 268 278 218 293 297 210 230 261 266 238 248 233 227 215 222 219 220 240 235 238 248 252 246 248
4 2 359 359 355 352 348 345 342 340 340 337 334 331 327 319 314 310 299 289 336 321 296 279 267 267 267 275 271 267 266 253 247 240 231 226 220 227 234 230 236 243 253 253 261 258 262
3 360 358 356 351 349 350 346 342 339 337 333 329 326 322 317 312 293 265 317 335 295 289 279 262 261 261 248 248 250 242 243 243 249 235 224 238 229 239 231 238 236 240 247 259 269 269
357 357 356 351 349 348 349 346 342 338 337 334 329 325 324 322 279 320 311 346 318 348 289 284 214 207 222 252 255 248 236 231 238 239 248 250 242 242 230 238 231 241 234 246 252 251 256
352 352 352 348 349 346 342 342 340 337 335 329 326 327 324 315 314 311 334 326 340 317 273 34 32 30 350 323 276 171 224 225 234 241 231 244 249 237 238 239 231 247 240 248 249 249 259
351 349 347 347 347 344 336 338 335 333 330 328 325 327 330 331 219 310 339 327 342 252 238 8 18 303 343 343 324 310 221 210 235 237 247 253 252 255 253 241 247 243 243 252 257 257 246
348 346 343 342 342 342 336 333 334 330 328 326 324 323 313 312 328 328 317 318 280 270 296 20 348 343 328 292 264 231 260 260 212 281 245 243 242 254 251 255 232 239 237 230 236 231 244
347 342 340 339 340 339 338 333 332 329 327 327 321 313 272 270 353 322 325 321 287 324 336 354 347 330 314 323 291 285 259 273 279 230 243 272 274 223 239 246 243 218 233 226 220 220 240
347 343 342 342 339 337 336 331 333 328 328 326 314 255 256 37 331 1 317 329 257 286 352 339 341 350 335 316 340 320 276 268 277 338 240 310 276 280 276 240 242 244 220 237 250 234 250
348 345 343 341 339 337 336 333 327 330 330 321 313 304 254 341 17 294 303 296 267 330 329 333 339 324 309 317 304 308 332 341 294 164 1 305 289 280 290 222 241 240 232 222 226 232 242
349 347 344 341 339 336 334 333 332 333 331 315 269 231 106 317 294 297 293 298 318 318 334 324 326 310 324 322 315 312 228 235 270 295 274 265 255 271 283 266 215 229 235 220 244 227 236
348 347 344 342 339 336 335 332 336 336 335 318 297 290 107 325 312 272 307 323 308 308 335 328 332 312 324 305 304 309 299 22 2 327 299 303 292 272 261 274 273 233 230 233 219 219 231
344 344 343 341 340 336 336 336 336 337 345 320 285 321 134 222 324 328 316 326 318 336 336 325 321 313 333 328 311 298 14 313 312 326 324 356 252 266 258 272 261 248 225 235 241 238 215
340 340 341 340 340 338 338 338 339 335 337 317 277 337 331 332 336 320 312 317 322 319 321 332 321 311 339 286 286 275 337 259 246 278 295 333 271 271 273 273 345 307 272 225 227 215 222
337 338 338 338 338 339 339 337 340 335 333 310 305 279 351 299 312 314 297 294 314 330 337 332 318 326 329 327 316 328 315 310 348 341 254 162 274 287 281 248 269 290 283 249 220 201 223
332 335 336 336 337 339 338 337 340 340 332 251 342 334 343 301 303 296 323 322 316 327 327 317 324 324 319 308 311 312 312 306 301 243 134 240 272 282 281 249 243 294 286 278 221 198 214
328 330 332 333 334 336 336 337 340 345 344 306 4 296 267 290 295 326 292 325 315 317 307 310 319 322 315 324 313 297 287 279 280 279 271 252 280 297 249 182 302 267 242 250 220 202 210
327 328 330 331 333 334 334 333 337 344 347 307 295 308 293 290 316 327 336 314 311 319 305 315 306 305 307 318 305 280 255 252 251 250 244 248 275 289 327 85 264 259 255 234 217 204 207
324 327 328 329 331 331 332 330 330 333 335 304 294 288 281 286 311 315 338 337 322 318 312 317 323 349 320 315 298 303 313 239 226 229 230 218 248 269 241 176 297 291 12 331 206 93 9
320 322 324 327 330 330 328 327 328 324 329 303 283 257 264 297 307 326 319 314 316 323 315 325 331 346 323 312 324 319 283 337 311 300 243 178 209 190 329 224 209 343 335 322 330 71 20
316 319 321 324 326 328 327 326 324 322 319 310 284 284 266 256 269 317 314 307 314 305 292 312 347 315 342 333 334 339 338 346 6 10 331 248 260 262 285 239 314 323 330 298 140 61 0
309 314 318 320 321 324 324 324 321 319 316 313 287 289 247 255 291 282 316 301 304 324 295 328 315 355 334 344 342 2 308 347 339 337 348 339 318 346 280 198 356 334 347 46 326 337 15
306 304 311 316 317 316 319 319 317 315 314 308 278 284 199 231 276 289 280 276 276 285 203 20 294 307 316 321 344 324 312 313 330 6 349 29 21 320 359 3 329 318 344 0 344 40 9